Time,TemperatureF,DewpointF,PressureIn,WindDirection,WindDirectionDegrees,WindSpeedMPH,WindSpeedGustMPH,Humidity,HourlyPrecipIn,Conditions,Clouds,dailyrainin,SoftwareType,DateUTC
2013-07-27 00:01:00,63.3,38.6,30.06,WSW,241,0.0,0.0,40,0.00,,---,0.00,VWS V14.01,2013-07-27 04:01:00,
2013-07-27 00:06:00,63.3,39.2,30.06,WSW,241,0.0,0.0,41,0.00,,---,0.00,VWS V14.01,2013-07-27 04:06:00,
2013-07-27 00:11:00,63.3,39.9,30.06,WSW,241,0.0,0.0,42,0.00,,---,0.00,VWS V14.01,2013-07-27 04:11:00,
2013-07-27 00:16:00,63.1,39.7,30.06,WSW,241,0.0,0.0,42,0.00,,---,0.00,VWS V14.01,2013-07-27 04:16:00,
2013-07-27 00:21:00,63.1,39.7,30.06,WSW,241,0.0,0.0,42,0.00,,---,0.00,VWS V14.01,2013-07-27 04:21:00,
2013-07-27 00:26:00,63.1,39.7,30.06,WSW,241,0.0,0.0,42,0.00,,---,0.00,VWS V14.01,2013-07-27 04:26:00,
2013-07-27 00:31:00,63.0,40.1,30.06,WSW,241,0.0,0.0,43,0.00,,---,0.00,VWS V14.01,2013-07-27 04:31:00,
2013-07-27 00:36:00,63.1,40.3,30.06,WSW,241,0.0,0.0,43,0.00,,---,0.00,VWS V14.01,2013-07-27 04:36:00,
2013-07-27 00:41:00,63.0,40.1,30.06,WSW,241,0.0,0.0,43,0.00,,---,0.00,VWS V14.01,2013-07-27 04:41:00,
2013-07-27 00:46:00,63.0,40.7,30.06,WSW,241,0.0,0.0,44,0.00,,---,0.00,VWS V14.01,2013-07-27 04:46:00,
2013-07-27 00:51:00,63.0,40.7,30.06,WSW,241,0.0,0.0,44,0.00,,---,0.00,VWS V14.01,2013-07-27 04:51:00,
2013-07-27 00:57:00,63.0,40.7,30.06,WSW,241,0.0,0.0,44,0.00,,---,0.00,VWS V14.01,2013-07-27 04:57:00,
2013-07-27 01:02:00,63.0,40.7,30.06,WSW,241,0.0,0.0,44,0.00,,---,0.00,VWS V14.01,2013-07-27 05:02:00,
2013-07-27 01:07:00,63.0,40.7,30.06,WSW,241,0.0,0.0,44,0.00,,---,0.00,VWS V14.01,2013-07-27 05:07:00,
2013-07-27 01:12:00,63.0,41.3,30.06,WSW,241,0.0,0.0,45,0.00,,---,0.00,VWS V14.01,2013-07-27 05:12:00,
2013-07-27 01:17:00,63.0,41.3,30.06,WSW,241,0.0,0.0,45,0.00,,---,0.00,VWS V14.01,2013-07-27 05:17:00,
2013-07-27 01:22:00,63.0,41.3,30.06,WSW,241,0.0,0.0,45,0.00,,---,0.00,VWS V14.01,2013-07-27 05:22:00,
2013-07-27 01:27:00,62.8,41.2,30.06,WSW,241,0.0,0.0,45,0.00,,---,0.00,VWS V14.01,2013-07-27 05:27:00,
2013-07-27 01:32:00,62.8,41.2,30.06,WSW,241,0.0,0.0,45,0.00,,---,0.00,VWS V14.01,2013-07-27 05:32:00,
2013-07-27 01:37:00,62.8,41.2,30.06,WSW,241,0.0,0.0,45,0.00,,---,0.00,VWS V14.01,2013-07-27 05:37:00,
2013-07-27 01:42:00,62.6,41.5,30.06,WSW,241,0.0,0.0,46,0.00,,---,0.00,VWS V14.01,2013-07-27 05:42:00,
2013-07-27 01:47:00,62.6,41.5,30.06,WSW,241,0.0,0.0,46,0.00,,---,0.00,VWS V14.01,2013-07-27 05:47:00,
2013-07-27 01:52:00,62.6,41.5,30.06,WSW,241,0.0,0.0,46,0.00,,---,0.00,VWS V14.01,2013-07-27 05:52:00,
2013-07-27 01:57:00,62.6,41.5,30.06,WSW,241,0.0,0.0,46,0.00,,---,0.00,VWS V14.01,2013-07-27 05:57:00,
2013-07-27 02:02:00,62.6,42.1,30.06,WSW,241,0.0,0.0,47,0.00,,---,0.00,VWS V14.01,2013-07-27 06:02:00,
2013-07-27 02:07:00,62.6,42.1,30.06,WSW,241,0.0,0.0,47,0.00,,---,0.00,VWS V14.01,2013-07-27 06:07:00,
2013-07-27 02:12:00,62.4,42.5,30.06,WSW,241,0.0,0.0,48,0.00,,---,0.00,VWS V14.01,2013-07-27 06:12:00,
2013-07-27 02:17:00,62.4,42.5,30.06,WSW,241,0.0,0.0,48,0.00,,---,0.00,VWS V14.01,2013-07-27 06:17:00,
2013-07-27 02:22:00,62.4,43.0,30.06,WSW,241,0.0,0.0,49,0.00,,---,0.00,VWS V14.01,2013-07-27 06:22:00,
2013-07-27 02:27:00,62.4,43.0,30.06,WSW,241,0.0,0.0,49,0.00,,---,0.00,VWS V14.01,2013-07-27 06:27:00,
2013-07-27 02:32:00,62.4,43.5,30.06,WSW,241,0.0,0.0,50,0.00,,---,0.00,VWS V14.01,2013-07-27 06:32:00,
2013-07-27 02:37:00,62.4,43.5,30.06,WSW,241,0.0,0.0,50,0.00,,---,0.00,VWS V14.01,2013-07-27 06:37:00,
2013-07-27 02:42:00,62.4,44.1,30.06,WSW,241,0.0,0.0,51,0.00,,---,0.00,VWS V14.01,2013-07-27 06:42:00,
2013-07-27 02:47:00,62.4,44.1,30.03,WSW,241,0.0,0.0,51,0.00,,---,0.00,VWS V14.01,2013-07-27 06:47:00,
2013-07-27 02:52:00,62.4,44.1,30.03,WSW,241,0.0,0.0,51,0.00,,---,0.00,VWS V14.01,2013-07-27 06:52:00,
2013-07-27 02:57:00,62.4,44.1,30.03,WSW,241,0.0,0.0,51,0.00,,---,0.00,VWS V14.01,2013-07-27 06:57:00,
2013-07-27 03:02:00,62.2,43.9,30.06,WSW,241,0.0,0.0,51,0.00,,---,0.00,VWS V14.01,2013-07-27 07:02:00,
2013-07-27 03:07:00,62.4,44.6,30.06,WSW,241,0.0,0.0,52,0.00,,---,0.00,VWS V14.01,2013-07-27 07:07:00,
2013-07-27 03:12:00,62.4,45.1,30.06,WSW,241,0.0,0.0,53,0.00,,---,0.00,VWS V14.01,2013-07-27 07:12:00,
2013-07-27 03:17:00,62.4,45.6,30.03,WSW,241,0.0,0.0,54,0.00,,---,0.00,VWS V14.01,2013-07-27 07:17:00,
2013-07-27 03:22:00,62.4,45.6,30.03,WSW,241,0.0,0.0,54,0.00,,---,0.00,VWS V14.01,2013-07-27 07:22:00,
2013-07-27 03:27:00,62.4,45.6,30.03,WSW,241,0.0,0.0,54,0.00,,---,0.00,VWS V14.01,2013-07-27 07:27:00,
2013-07-27 03:32:00,62.4,45.6,30.03,WSW,241,0.0,0.0,54,0.00,,---,0.00,VWS V14.01,2013-07-27 07:32:00,
2013-07-27 03:37:00,62.2,45.4,30.03,WSW,241,0.0,0.0,54,0.00,,---,0.00,VWS V14.01,2013-07-27 07:37:00,
2013-07-27 03:42:00,62.2,45.9,30.03,WSW,241,0.0,0.0,55,0.00,,---,0.00,VWS V14.01,2013-07-27 07:42:00,
2013-07-27 03:47:00,62.2,46.4,30.03,WSW,241,0.0,0.0,56,0.00,,---,0.00,VWS V14.01,2013-07-27 07:47:00,
2013-07-27 03:52:00,62.2,46.4,30.03,WSW,241,0.0,0.0,56,0.00,,---,0.00,VWS V14.01,2013-07-27 07:52:00,
2013-07-27 03:57:00,62.2,46.4,30.03,WSW,241,0.0,0.0,56,0.00,,---,0.00,VWS V14.01,2013-07-27 07:57:00,
2013-07-27 04:02:00,62.1,46.2,30.03,WSW,241,0.0,0.0,56,0.00,,---,0.00,VWS V14.01,2013-07-27 08:02:00,
2013-07-27 04:07:00,62.1,46.2,30.03,WSW,241,0.0,0.0,56,0.00,,---,0.00,VWS V14.01,2013-07-27 08:07:00,
2013-07-27 04:12:00,61.9,46.0,30.03,WSW,241,0.0,0.0,56,0.00,,---,0.00,VWS V14.01,2013-07-27 08:12:00,
2013-07-27 04:17:00,61.9,46.0,30.03,WSW,241,0.0,0.0,56,0.00,,---,0.00,VWS V14.01,2013-07-27 08:17:00,
2013-07-27 04:22:00,61.9,46.5,30.03,WSW,241,0.0,0.0,57,0.00,,---,0.00,VWS V14.01,2013-07-27 08:22:00,
2013-07-27 04:27:00,61.9,46.5,30.03,WSW,241,0.0,0.0,57,0.00,,---,0.00,VWS V14.01,2013-07-27 08:27:00,
2013-07-27 04:32:00,61.9,46.5,30.03,WSW,241,0.0,0.0,57,0.00,,---,0.00,VWS V14.01,2013-07-27 08:32:00,
2013-07-27 04:37:00,61.7,46.8,30.03,WSW,241,0.0,0.0,58,0.00,,---,0.00,VWS V14.01,2013-07-27 08:37:00,
2013-07-27 04:42:00,61.7,46.8,30.03,WSW,241,0.0,0.0,58,0.00,,---,0.00,VWS V14.01,2013-07-27 08:42:00,
2013-07-27 04:47:00,61.7,46.8,30.03,WSW,241,0.0,0.0,58,0.00,,---,0.00,VWS V14.01,2013-07-27 08:47:00,
2013-07-27 04:52:00,61.7,46.8,30.03,WSW,241,0.0,0.0,58,0.00,,---,0.00,VWS V14.01,2013-07-27 08:52:00,
2013-07-27 04:57:00,61.7,46.8,30.03,WSW,241,0.0,0.0,58,0.00,,---,0.00,VWS V14.01,2013-07-27 08:57:00,
2013-07-27 05:02:00,61.7,46.8,30.03,WSW,241,0.0,0.0,58,0.00,,---,0.00,VWS V14.01,2013-07-27 09:02:00,
2013-07-27 05:07:00,61.5,47.1,30.03,WSW,241,0.0,0.0,59,0.00,,---,0.00,VWS V14.01,2013-07-27 09:07:00,
2013-07-27 05:12:00,61.5,47.1,30.03,WSW,241,0.0,0.0,59,0.00,,---,0.00,VWS V14.01,2013-07-27 09:12:00,
2013-07-27 05:17:00,61.5,47.1,30.03,WSW,241,0.0,0.0,59,0.00,,---,0.00,VWS V14.01,2013-07-27 09:17:00,
2013-07-27 05:22:00,61.5,47.1,30.03,WSW,241,0.0,0.0,59,0.00,,---,0.00,VWS V14.01,2013-07-27 09:22:00,
2013-07-27 05:27:00,61.3,46.9,30.03,WSW,241,0.0,0.0,59,0.00,,---,0.00,VWS V14.01,2013-07-27 09:27:00,
2013-07-27 05:32:00,61.3,46.9,30.06,WSW,241,0.0,0.0,59,0.00,,---,0.00,VWS V14.01,2013-07-27 09:32:00,
2013-07-27 05:37:00,61.3,46.9,30.06,WSW,241,0.0,0.0,59,0.00,,---,0.00,VWS V14.01,2013-07-27 09:37:00,
2013-07-27 05:42:00,61.3,47.3,30.06,WSW,241,0.0,0.0,60,0.00,,---,0.00,VWS V14.01,2013-07-27 09:42:00,
2013-07-27 05:47:00,61.2,46.7,30.06,WSW,241,0.0,0.0,59,0.00,,---,0.00,VWS V14.01,2013-07-27 09:47:00,
2013-07-27 05:52:00,61.3,47.3,30.06,WSW,241,0.0,0.0,60,0.00,,---,0.00,VWS V14.01,2013-07-27 09:52:00,
2013-07-27 05:57:00,61.3,47.8,30.06,WSW,241,0.0,0.0,61,0.00,,---,0.00,VWS V14.01,2013-07-27 09:57:00,
2013-07-27 06:02:00,61.3,47.8,30.06,WSW,241,0.0,0.0,61,0.00,,---,0.00,VWS V14.01,2013-07-27 10:02:00,
2013-07-27 06:07:00,61.5,48.4,30.06,WSW,241,0.0,0.0,62,0.00,,---,0.00,VWS V14.01,2013-07-27 10:07:00,
2013-07-27 06:12:00,61.5,48.4,30.06,WSW,241,0.0,0.0,62,0.00,,---,0.00,VWS V14.01,2013-07-27 10:12:00,
2013-07-27 06:17:00,61.7,48.6,30.06,WSW,241,0.0,0.0,62,0.00,,---,0.00,VWS V14.01,2013-07-27 10:17:00,
2013-07-27 06:22:00,61.7,48.6,30.06,WSW,241,0.0,0.0,62,0.00,,---,0.00,VWS V14.01,2013-07-27 10:22:00,
2013-07-27 06:27:00,61.9,49.2,30.06,WSW,241,0.0,0.0,63,0.00,,---,0.00,VWS V14.01,2013-07-27 10:27:00,
2013-07-27 06:32:00,62.2,49.5,30.06,WSW,241,0.0,0.0,63,0.00,,---,0.00,VWS V14.01,2013-07-27 10:32:00,
2013-07-27 06:37:00,62.2,49.5,30.06,WSW,241,0.0,0.0,63,0.00,,---,0.00,VWS V14.01,2013-07-27 10:37:00,
2013-07-27 06:42:00,62.6,49.8,30.06,WSW,241,0.0,0.0,63,0.00,,---,0.00,VWS V14.01,2013-07-27 10:42:00,
2013-07-27 06:47:00,63.1,50.8,30.03,WSW,241,0.0,0.0,64,0.00,,---,0.00,VWS V14.01,2013-07-27 10:47:00,
2013-07-27 06:52:00,63.5,51.1,30.03,WSW,241,0.0,0.0,64,0.00,,---,0.00,VWS V14.01,2013-07-27 10:52:00,
2013-07-27 06:57:00,63.9,51.5,30.03,WSW,241,0.0,0.0,64,0.00,,---,0.00,VWS V14.01,2013-07-27 10:57:00,
2013-07-27 07:02:00,64.4,51.5,30.03,WSW,241,0.0,0.0,63,0.00,,---,0.00,VWS V14.01,2013-07-27 11:02:00,
2013-07-27 07:07:00,65.1,52.2,30.03,WSW,241,0.0,0.0,63,0.00,,---,0.00,VWS V14.01,2013-07-27 11:07:00,
2013-07-27 07:12:00,65.5,52.1,30.03,WSW,241,0.0,0.0,62,0.00,,---,0.00,VWS V14.01,2013-07-27 11:12:00,
2013-07-27 07:17:00,65.7,52.3,30.06,WSW,241,0.0,0.0,62,0.00,,---,0.00,VWS V14.01,2013-07-27 11:17:00,
2013-07-27 07:22:00,66.2,52.4,30.06,WSW,241,0.0,0.0,61,0.00,,---,0.00,VWS V14.01,2013-07-27 11:22:00,
2013-07-27 07:27:00,66.6,52.3,30.06,WSW,241,0.0,0.0,60,0.00,,---,0.00,VWS V14.01,2013-07-27 11:27:00,
2013-07-27 07:32:00,66.9,53.0,30.06,WSW,241,0.0,0.0,61,0.00,,---,0.00,VWS V14.01,2013-07-27 11:32:00,
2013-07-27 07:37:00,67.3,53.8,30.06,WSW,241,0.0,0.0,62,0.00,,---,0.00,VWS V14.01,2013-07-27 11:37:00,
2013-07-27 07:42:00,67.5,53.1,30.06,WSW,241,0.0,0.0,60,0.00,,---,0.00,VWS V14.01,2013-07-27 11:42:00,
2013-07-27 07:47:00,67.8,53.9,30.06,WSW,241,0.0,0.0,61,0.00,,---,0.00,VWS V14.01,2013-07-27 11:47:00,
2013-07-27 07:52:00,68.2,54.2,30.06,WSW,241,0.0,0.0,61,0.00,,---,0.00,VWS V14.01,2013-07-27 11:52:00,
2013-07-27 07:57:00,68.7,55.6,30.06,WSW,241,0.0,0.0,63,0.00,,---,0.00,VWS V14.01,2013-07-27 11:57:00,
2013-07-27 08:02:00,68.9,54.9,30.06,WSW,241,0.0,0.0,61,0.00,,---,0.00,VWS V14.01,2013-07-27 12:02:00,
2013-07-27 08:07:00,69.1,53.7,30.06,WSW,241,0.0,0.0,58,0.00,,---,0.00,VWS V14.01,2013-07-27 12:07:00,
2013-07-27 08:12:00,69.3,52.4,30.06,WSW,241,0.0,0.0,55,0.00,,---,0.00,VWS V14.01,2013-07-27 12:12:00,
2013-07-27 08:17:00,69.3,51.4,30.06,WSW,241,0.0,0.0,53,0.00,,---,0.00,VWS V14.01,2013-07-27 12:17:00,
2013-07-27 08:22:00,69.3,50.9,30.06,WSW,241,3.1,3.1,52,0.00,,---,0.00,VWS V14.01,2013-07-27 12:22:00,
2013-07-27 08:27:00,69.6,50.2,30.06,WSW,241,0.0,0.0,50,0.00,,---,0.00,VWS V14.01,2013-07-27 12:27:00,
2013-07-27 08:32:00,70.0,48.8,30.06,WSW,241,0.0,0.0,47,0.00,,---,0.00,VWS V14.01,2013-07-27 12:32:00,
2013-07-27 08:37:00,70.0,47.1,30.06,WSW,241,0.0,0.0,44,0.00,,---,0.00,VWS V14.01,2013-07-27 12:37:00,
2013-07-27 08:42:00,70.2,46.6,30.06,WSW,241,0.0,0.0,43,0.00,,---,0.00,VWS V14.01,2013-07-27 12:42:00,
2013-07-27 08:47:00,70.3,46.2,30.06,WSW,241,2.2,2.2,42,0.00,,---,0.00,VWS V14.01,2013-07-27 12:47:00,
2013-07-27 08:52:00,70.2,45.4,30.06,WSW,241,3.6,3.6,41,0.00,,---,0.00,VWS V14.01,2013-07-27 12:52:00,
2013-07-27 08:57:00,70.3,45.5,30.06,WSW,241,3.6,3.6,41,0.00,,---,0.00,VWS V14.01,2013-07-27 12:57:00,
2013-07-27 09:02:00,70.7,45.9,30.06,WSW,241,0.0,0.0,41,0.00,,---,0.00,VWS V14.01,2013-07-27 13:02:00,
2013-07-27 09:07:00,71.2,45.7,30.06,WSW,241,0.0,2.2,40,0.00,,---,0.00,VWS V14.01,2013-07-27 13:07:00,
2013-07-27 09:12:00,71.4,43.8,30.06,SW,233,0.0,0.0,37,0.00,,---,0.00,VWS V14.01,2013-07-27 13:12:00,
2013-07-27 09:17:00,72.0,42.8,30.06,SW,234,2.7,2.7,35,0.00,,---,0.00,VWS V14.01,2013-07-27 13:17:00,
2013-07-27 09:22:00,72.3,41.6,30.06,SW,235,4.9,4.9,33,0.00,,---,0.00,VWS V14.01,2013-07-27 13:22:00,
2013-07-27 09:27:00,72.7,42.0,30.06,WSW,245,0.0,0.0,33,0.00,,---,0.00,VWS V14.01,2013-07-27 13:27:00,
2013-07-27 09:32:00,73.2,42.4,30.06,WSW,250,3.6,4.0,33,0.00,,---,0.00,VWS V14.01,2013-07-27 13:32:00,
2013-07-27 09:37:00,73.8,42.1,30.06,SW,236,3.1,3.1,32,0.00,,---,0.00,VWS V14.01,2013-07-27 13:37:00,
2013-07-27 09:42:00,73.9,42.2,30.06,WSW,245,4.0,4.0,32,0.00,,---,0.00,VWS V14.01,2013-07-27 13:42:00,
2013-07-27 09:47:00,74.5,42.7,30.06,WSW,241,2.2,2.2,32,0.00,,---,0.00,VWS V14.01,2013-07-27 13:47:00,
2013-07-27 09:52:00,75.0,43.2,30.06,WSW,241,2.7,2.7,32,0.00,,---,0.00,VWS V14.01,2013-07-27 13:52:00,
2013-07-27 09:57:00,75.2,42.5,30.06,WSW,239,2.2,3.6,31,0.00,,---,0.00,VWS V14.01,2013-07-27 13:57:00,
2013-07-27 10:02:00,75.2,42.5,30.06,SW,231,4.0,25.7,31,0.00,,---,0.00,VWS V14.01,2013-07-27 14:02:00,
2013-07-27 10:07:00,75.6,42.8,30.06,SW,224,2.7,2.7,31,0.00,,---,0.00,VWS V14.01,2013-07-27 14:07:00,
2013-07-27 10:12:00,76.1,43.3,30.06,SW,235,4.0,4.9,31,0.00,,---,0.00,VWS V14.01,2013-07-27 14:12:00,
2013-07-27 10:17:00,76.5,43.6,30.06,SW,220,2.7,2.7,31,0.00,,---,0.00,VWS V14.01,2013-07-27 14:17:00,
2013-07-27 10:22:00,77.2,44.2,30.06,SW,230,3.1,3.1,31,0.00,,---,0.00,VWS V14.01,2013-07-27 14:22:00,
2013-07-27 10:27:00,77.9,44.9,30.06,SW,233,2.7,2.7,31,0.00,,---,0.00,VWS V14.01,2013-07-27 14:27:00,
2013-07-27 10:32:00,78.4,45.3,30.06,WSW,237,4.0,4.0,31,0.00,,---,0.00,VWS V14.01,2013-07-27 14:32:00,
2013-07-27 10:37:00,78.6,45.5,30.06,WSW,238,4.0,4.0,31,0.00,,---,0.00,VWS V14.01,2013-07-27 14:37:00,
2013-07-27 10:42:00,78.8,44.8,30.06,WSW,237,3.1,3.6,30,0.00,,---,0.00,VWS V14.01,2013-07-27 14:42:00,
2013-07-27 10:47:00,79.0,44.9,30.06,SSW,198,0.0,0.0,30,0.00,,---,0.00,VWS V14.01,2013-07-27 14:47:00,
2013-07-27 10:52:00,79.0,44.9,30.06,WSW,246,2.7,3.6,30,0.00,,---,0.00,VWS V14.01,2013-07-27 14:52:00,
2013-07-27 10:57:00,78.4,45.3,30.06,WSW,238,4.0,5.8,31,0.00,,---,0.00,VWS V14.01,2013-07-27 14:57:00,
2013-07-27 11:02:00,78.1,45.0,30.06,WSW,239,3.1,3.6,31,0.00,,---,0.00,VWS V14.01,2013-07-27 15:02:00,
2013-07-27 11:07:00,78.4,45.3,30.06,SW,235,5.4,6.3,31,0.00,,---,0.00,VWS V14.01,2013-07-27 15:07:00,
2013-07-27 11:12:00,78.8,44.8,30.06,WSW,239,0.0,0.0,30,0.00,,---,0.00,VWS V14.01,2013-07-27 15:12:00,
2013-07-27 11:17:00,79.7,45.6,30.06,WSW,240,0.0,0.0,30,0.00,,---,0.00,VWS V14.01,2013-07-27 15:17:00,
2013-07-27 11:22:00,80.1,45.9,30.06,SW,224,3.1,3.1,30,0.00,,---,0.00,VWS V14.01,2013-07-27 15:22:00,
2013-07-27 11:27:00,80.2,46.0,30.06,SW,231,2.7,2.7,30,0.00,,---,0.00,VWS V14.01,2013-07-27 15:27:00,
2013-07-27 11:32:00,80.4,46.2,30.03,SW,224,0.0,2.2,30,0.00,,---,0.00,VWS V14.01,2013-07-27 15:32:00,
2013-07-27 11:37:00,80.4,46.2,30.03,WSW,237,5.4,5.4,30,0.00,,---,0.00,VWS V14.01,2013-07-27 15:37:00,
2013-07-27 11:42:00,79.9,45.7,30.03,WSW,237,2.2,5.4,30,0.00,,---,0.00,VWS V14.01,2013-07-27 15:42:00,
2013-07-27 11:47:00,79.3,45.2,30.03,SW,226,0.0,0.0,30,0.00,,---,0.00,VWS V14.01,2013-07-27 15:47:00,
2013-07-27 11:52:00,79.2,45.1,30.03,SW,231,0.0,0.0,30,0.00,,---,0.00,VWS V14.01,2013-07-27 15:52:00,
2013-07-27 11:57:00,79.5,45.4,30.03,WSW,250,3.6,3.6,30,0.00,,---,0.00,VWS V14.01,2013-07-27 15:57:00,
2013-07-27 12:02:00,79.9,45.7,30.03,SSW,204,2.7,2.7,30,0.00,,---,0.00,VWS V14.01,2013-07-27 16:02:00,
2013-07-27 12:07:00,80.6,46.3,30.03,SW,233,5.4,6.3,30,0.00,,---,0.00,VWS V14.01,2013-07-27 16:07:00,
2013-07-27 12:12:00,81.1,46.8,30.03,SW,216,3.1,5.8,30,0.00,,---,0.00,VWS V14.01,2013-07-27 16:12:00,
2013-07-27 12:17:00,81.0,46.6,30.03,WSW,243,6.3,6.3,30,0.00,,---,0.00,VWS V14.01,2013-07-27 16:17:00,
2013-07-27 12:22:00,80.6,46.3,30.03,WSW,238,3.6,3.6,30,0.00,,---,0.00,VWS V14.01,2013-07-27 16:22:00,
2013-07-27 12:27:00,80.8,46.5,30.03,SW,231,0.0,3.1,30,0.00,,---,0.00,VWS V14.01,2013-07-27 16:27:00,
2013-07-27 12:32:00,81.7,47.3,30.03,SW,227,3.1,3.6,30,0.00,,---,0.00,VWS V14.01,2013-07-27 16:32:00,
2013-07-27 12:37:00,82.2,47.7,30.03,SW,235,2.7,4.0,30,0.00,,---,0.00,VWS V14.01,2013-07-27 16:37:00,
2013-07-27 12:42:00,82.8,47.3,30.03,WSW,251,5.8,6.3,29,0.00,,---,0.00,VWS V14.01,2013-07-27 16:42:00,
2013-07-27 12:47:00,82.8,47.3,30.03,SW,235,8.7,8.7,29,0.00,,---,0.00,VWS V14.01,2013-07-27 16:47:00,
2013-07-27 12:52:00,83.1,47.6,30.03,WSW,246,4.9,6.3,29,0.00,,---,0.00,VWS V14.01,2013-07-27 16:52:00,
2013-07-27 12:57:00,83.1,47.6,30.03,SW,223,0.0,2.2,29,0.00,,---,0.00,VWS V14.01,2013-07-27 16:57:00,
2013-07-27 13:02:00,82.9,47.5,30.03,SW,224,2.7,3.6,29,0.00,,---,0.00,VWS V14.01,2013-07-27 17:02:00,
2013-07-27 13:07:00,83.1,47.6,30.03,WSW,240,6.3,6.3,29,0.00,,---,0.00,VWS V14.01,2013-07-27 17:07:00,
2013-07-27 13:12:00,82.4,47.0,30.03,ESE,115,3.1,3.6,29,0.00,,---,0.00,VWS V14.01,2013-07-27 17:12:00,
2013-07-27 13:17:00,82.0,47.6,30.00,WSW,237,0.0,3.6,30,0.00,,---,0.00,VWS V14.01,2013-07-27 17:17:00,
2013-07-27 13:22:00,81.9,47.4,30.00,SW,234,0.0,0.0,30,0.00,,---,0.00,VWS V14.01,2013-07-27 17:22:00,
2013-07-27 13:27:00,81.5,47.1,30.00,WSW,237,3.1,3.1,30,0.00,,---,0.00,VWS V14.01,2013-07-27 17:27:00,
2013-07-27 13:32:00,81.3,47.0,30.00,SW,236,0.0,2.2,30,0.00,,---,0.00,VWS V14.01,2013-07-27 17:32:00,
2013-07-27 13:37:00,81.5,47.1,30.00,SW,232,3.6,3.6,30,0.00,,---,0.00,VWS V14.01,2013-07-27 17:37:00,
2013-07-27 13:42:00,81.5,47.1,30.00,SW,233,4.0,4.0,30,0.00,,---,0.00,VWS V14.01,2013-07-27 17:42:00,
2013-07-27 13:47:00,82.0,47.6,30.03,SW,233,4.5,5.4,30,0.00,,---,0.00,VWS V14.01,2013-07-27 17:47:00,
2013-07-27 13:52:00,82.8,47.3,30.03,ESE,118,0.0,3.1,29,0.00,,---,0.00,VWS V14.01,2013-07-27 17:52:00,
2013-07-27 13:57:00,82.6,47.1,30.03,West,260,2.7,2.7,29,0.00,,---,0.00,VWS V14.01,2013-07-27 17:57:00,
2013-07-27 14:02:00,82.0,47.6,30.03,East,97,2.2,5.8,30,0.00,,---,0.00,VWS V14.01,2013-07-27 18:02:00,
2013-07-27 14:07:00,82.2,47.7,30.03,WSW,250,4.0,5.8,30,0.00,,---,0.00,VWS V14.01,2013-07-27 18:07:00,
2013-07-27 14:12:00,82.0,47.6,30.03,WSW,244,2.7,5.4,30,0.00,,---,0.00,VWS V14.01,2013-07-27 18:12:00,
2013-07-27 14:17:00,82.0,47.6,30.00,SSW,200,3.1,5.4,30,0.00,,---,0.00,VWS V14.01,2013-07-27 18:17:00,
2013-07-27 14:22:00,81.7,47.3,30.00,WSW,241,5.4,5.4,30,0.00,,---,0.00,VWS V14.01,2013-07-27 18:22:00,
2013-07-27 14:27:00,81.7,47.3,30.00,ESE,108,2.7,2.7,30,0.00,,---,0.00,VWS V14.01,2013-07-27 18:27:00,
2013-07-27 14:32:00,81.9,47.4,30.00,SW,235,5.4,5.4,30,0.00,,---,0.00,VWS V14.01,2013-07-27 18:32:00,
2013-07-27 14:37:00,81.7,47.3,30.00,WSW,240,6.3,8.3,30,0.00,,---,0.00,VWS V14.01,2013-07-27 18:37:00,
2013-07-27 14:42:00,81.7,47.3,30.00,WSW,248,4.9,5.8,30,0.00,,---,0.00,VWS V14.01,2013-07-27 18:42:00,
2013-07-27 14:47:00,81.7,47.3,30.00,SW,236,4.0,6.3,30,0.00,,---,0.00,VWS V14.01,2013-07-27 18:47:00,
2013-07-27 14:52:00,81.9,47.4,30.00,SE,138,3.1,3.6,30,0.00,,---,0.00,VWS V14.01,2013-07-27 18:52:00,
2013-07-27 14:57:00,82.0,47.6,30.00,WSW,245,5.4,7.6,30,0.00,,---,0.00,VWS V14.01,2013-07-27 18:57:00,
2013-07-27 15:02:00,82.0,47.6,30.00,WSW,237,0.0,4.0,30,0.00,,---,0.00,VWS V14.01,2013-07-27 19:02:00,
2013-07-27 15:07:00,82.4,47.0,30.00,SE,124,0.0,3.1,29,0.00,,---,0.00,VWS V14.01,2013-07-27 19:07:00,
2013-07-27 15:12:00,82.8,47.3,30.00,SE,135,0.0,0.0,29,0.00,,---,0.00,VWS V14.01,2013-07-27 19:12:00,
2013-07-27 15:17:00,82.8,47.3,30.00,WSW,240,0.0,2.7,29,0.00,,---,0.00,VWS V14.01,2013-07-27 19:17:00,
2013-07-27 15:22:00,82.0,47.6,30.00,WSW,252,0.0,3.6,30,0.00,,---,0.00,VWS V14.01,2013-07-27 19:22:00,
2013-07-27 15:27:00,80.6,46.3,30.00,WSW,252,0.0,0.0,30,0.00,,---,0.00,VWS V14.01,2013-07-27 19:27:00,
2013-07-27 15:32:00,80.2,46.0,29.97,WSW,252,0.0,0.0,30,0.00,,---,0.00,VWS V14.01,2013-07-27 19:32:00,
2013-07-27 15:37:00,80.4,46.2,29.97,WSW,252,0.0,0.0,30,0.00,,---,0.00,VWS V14.01,2013-07-27 19:37:00,
2013-07-27 15:42:00,81.1,46.8,29.97,WSW,247,2.2,3.6,30,0.00,,---,0.00,VWS V14.01,2013-07-27 19:42:00,
2013-07-27 15:47:00,82.0,47.6,29.97,SW,220,3.1,3.1,30,0.00,,---,0.00,VWS V14.01,2013-07-27 19:47:00,
2013-07-27 15:52:00,82.6,47.1,29.97,South,189,0.0,0.0,29,0.00,,---,0.00,VWS V14.01,2013-07-27 19:52:00,
2013-07-27 15:57:00,82.8,47.3,29.97,WSW,241,2.7,2.7,29,0.00,,---,0.00,VWS V14.01,2013-07-27 19:57:00,
2013-07-27 16:02:00,82.2,47.7,29.97,WSW,237,3.6,3.6,30,0.00,,---,0.00,VWS V14.01,2013-07-27 20:02:00,
2013-07-27 16:07:00,81.5,47.1,29.97,WSW,237,0.0,2.2,30,0.00,,---,0.00,VWS V14.01,2013-07-27 20:07:00,
2013-07-27 16:12:00,81.5,47.1,29.97,SW,236,0.0,0.0,30,0.00,,---,0.00,VWS V14.01,2013-07-27 20:12:00,
2013-07-27 16:17:00,81.7,47.3,29.97,WSW,237,0.0,0.0,30,0.00,,---,0.00,VWS V14.01,2013-07-27 20:17:00,
2013-07-27 16:22:00,82.0,47.6,29.97,SW,236,0.0,0.0,30,0.00,,---,0.00,VWS V14.01,2013-07-27 20:22:00,
2013-07-27 16:27:00,82.6,47.1,29.97,SE,137,0.0,0.0,29,0.00,,---,0.00,VWS V14.01,2013-07-27 20:27:00,
2013-07-27 16:32:00,82.6,47.1,29.94,SE,142,0.0,2.2,29,0.00,,---,0.00,VWS V14.01,2013-07-27 20:32:00,
2013-07-27 16:37:00,82.6,47.1,29.94,SE,127,0.0,0.0,29,0.00,,---,0.00,VWS V14.01,2013-07-27 20:37:00,
2013-07-27 16:42:00,83.3,47.8,29.94,SE,127,0.0,0.0,29,0.00,,---,0.00,VWS V14.01,2013-07-27 20:42:00,
2013-07-27 16:47:00,83.3,47.8,29.97,SSE,153,0.0,0.0,29,0.00,,---,0.00,VWS V14.01,2013-07-27 20:47:00,
2013-07-27 16:52:00,82.4,47.0,29.97,ESE,120,0.0,2.2,29,0.00,,---,0.00,VWS V14.01,2013-07-27 20:52:00,
2013-07-27 16:57:00,81.9,47.4,29.97,ESE,109,0.0,0.0,30,0.00,,---,0.00,VWS V14.01,2013-07-27 20:57:00,
2013-07-27 17:02:00,81.9,47.4,29.97,ESE,109,0.0,0.0,30,0.00,,---,0.00,VWS V14.01,2013-07-27 21:02:00,
2013-07-27 17:07:00,82.0,47.6,29.97,ESE,110,0.0,0.0,30,0.00,,---,0.00,VWS V14.01,2013-07-27 21:07:00,
2013-07-27 17:12:00,82.2,47.7,29.97,ESE,113,2.7,3.1,30,0.00,,---,0.00,VWS V14.01,2013-07-27 21:12:00,
2013-07-27 17:17:00,82.9,47.5,29.94,SSE,153,2.2,3.6,29,0.00,,---,0.00,VWS V14.01,2013-07-27 21:17:00,
2013-07-27 17:22:00,83.5,47.9,29.94,SE,127,0.0,2.2,29,0.00,,---,0.00,VWS V14.01,2013-07-27 21:22:00,
2013-07-27 17:27:00,84.0,48.4,29.94,ESE,117,2.2,2.7,29,0.00,,---,0.00,VWS V14.01,2013-07-27 21:27:00,
2013-07-27 17:32:00,83.7,48.1,29.94,SSE,158,0.0,0.0,29,0.00,,---,0.00,VWS V14.01,2013-07-27 21:32:00,
2013-07-27 17:37:00,82.9,47.5,29.94,ESE,123,0.0,3.1,29,0.00,,---,0.00,VWS V14.01,2013-07-27 21:37:00,
2013-07-27 17:42:00,82.2,47.7,29.94,East,101,0.0,0.0,30,0.00,,---,0.00,VWS V14.01,2013-07-27 21:42:00,
2013-07-27 17:47:00,81.7,47.3,29.94,South,182,0.0,0.0,30,0.00,,---,0.00,VWS V14.01,2013-07-27 21:47:00,
2013-07-27 17:52:00,81.1,46.8,29.94,SW,218,0.0,0.0,30,0.00,,---,0.00,VWS V14.01,2013-07-27 21:52:00,
2013-07-27 17:57:00,80.6,46.3,29.94,WSW,244,0.0,0.0,30,0.00,,---,0.00,VWS V14.01,2013-07-27 21:57:00,
2013-07-27 18:02:00,80.4,46.2,29.94,WSW,245,0.0,0.0,30,0.00,,---,0.00,VWS V14.01,2013-07-27 22:02:00,
2013-07-27 18:07:00,80.2,46.0,29.94,South,169,0.0,0.0,30,0.00,,---,0.00,VWS V14.01,2013-07-27 22:07:00,
2013-07-27 18:12:00,79.9,45.7,29.94,South,173,0.0,0.0,30,0.00,,---,0.00,VWS V14.01,2013-07-27 22:12:00,
2013-07-27 18:17:00,79.7,45.6,29.94,SE,134,3.6,3.6,30,0.00,,---,0.00,VWS V14.01,2013-07-27 22:17:00,
2013-07-27 18:22:00,79.5,45.4,29.94,ESE,118,3.6,3.6,30,0.00,,---,0.00,VWS V14.01,2013-07-27 22:22:00,
2013-07-27 18:27:00,79.2,45.1,29.94,ESE,119,0.0,0.0,30,0.00,,---,0.00,VWS V14.01,2013-07-27 22:27:00,
2013-07-27 18:32:00,79.0,44.9,29.94,ESE,113,0.0,0.0,30,0.00,,---,0.00,VWS V14.01,2013-07-27 22:32:00,
2013-07-27 18:37:00,78.6,45.5,29.94,ESE,113,0.0,0.0,31,0.00,,---,0.00,VWS V14.01,2013-07-27 22:37:00,
2013-07-27 18:42:00,78.6,45.5,29.94,SE,131,2.7,3.1,31,0.00,,---,0.00,VWS V14.01,2013-07-27 22:42:00,
2013-07-27 18:47:00,78.3,45.2,29.94,SSW,200,2.7,2.7,31,0.00,,---,0.00,VWS V14.01,2013-07-27 22:47:00,
2013-07-27 18:52:00,77.9,44.9,29.94,SSE,163,2.7,3.1,31,0.00,,---,0.00,VWS V14.01,2013-07-27 22:52:00,
2013-07-27 18:57:00,77.4,44.4,29.94,ESE,121,0.0,3.6,31,0.00,,---,0.00,VWS V14.01,2013-07-27 22:57:00,
2013-07-27 19:02:00,77.0,44.1,29.94,East,97,2.2,2.2,31,0.00,,---,0.00,VWS V14.01,2013-07-27 23:02:00,
2013-07-27 19:07:00,76.6,43.8,29.94,ESE,116,0.0,2.2,31,0.00,,---,0.00,VWS V14.01,2013-07-27 23:07:00,
2013-07-27 19:12:00,76.3,43.5,29.94,ESE,106,2.7,2.7,31,0.00,,---,0.00,VWS V14.01,2013-07-27 23:12:00,
2013-07-27 19:17:00,75.9,43.1,29.97,SSE,148,2.2,3.6,31,0.00,,---,0.00,VWS V14.01,2013-07-27 23:17:00,
2013-07-27 19:22:00,75.6,42.8,4.64,SE,127,3.1,3.1,31,0.00,,---,0.00,VWS V14.01,2013-07-27 23:22:00,
2013-07-27 19:27:00,75.2,42.5,29.97,ESE,102,0.0,0.0,31,0.00,,---,0.00,VWS V14.01,2013-07-27 23:27:00,
2013-07-27 19:32:00,74.8,42.2,29.97,South,181,0.0,2.7,31,0.00,,---,0.00,VWS V14.01,2013-07-27 23:32:00,
2013-07-27 19:37:00,74.5,41.9,29.97,West,275,3.6,3.6,31,0.00,,---,0.00,VWS V14.01,2013-07-27 23:37:00,
2013-07-27 19:42:00,74.3,41.7,29.97,SE,141,2.7,2.7,31,0.00,,---,0.00,VWS V14.01,2013-07-27 23:42:00,
2013-07-27 19:47:00,74.1,41.6,29.97,East,89,0.0,0.0,31,0.00,,---,0.00,VWS V14.01,2013-07-27 23:47:00,
2013-07-27 19:52:00,73.9,41.4,29.97,East,101,0.0,3.1,31,0.00,,---,0.00,VWS V14.01,2013-07-27 23:52:00,
2013-07-27 19:57:00,73.6,41.1,29.97,East,101,0.0,0.0,31,0.00,,---,0.00,VWS V14.01,2013-07-27 23:57:00,
2013-07-27 20:02:00,73.4,41.0,29.97,ESE,117,0.0,3.1,31,0.00,,---,0.00,VWS V14.01,2013-07-28 00:02:00,
2013-07-27 20:07:00,73.2,41.6,29.97,SW,233,3.1,3.1,32,0.00,,---,0.00,VWS V14.01,2013-07-28 00:07:00,
2013-07-27 20:12:00,72.9,41.3,29.97,SE,127,0.0,0.0,32,0.00,,---,0.00,VWS V14.01,2013-07-28 00:12:00,
2013-07-27 20:17:00,72.7,41.2,29.97,SE,127,0.0,0.0,32,0.00,,---,0.00,VWS V14.01,2013-07-28 00:17:00,
2013-07-27 20:22:00,72.5,41.0,29.97,East,101,0.0,4.0,32,0.00,,---,0.00,VWS V14.01,2013-07-28 00:22:00,
2013-07-27 20:27:00,72.3,40.8,29.97,South,183,0.0,2.2,32,0.00,,---,0.00,VWS V14.01,2013-07-28 00:27:00,
2013-07-27 20:32:00,72.1,40.7,30.00,South,183,0.0,0.0,32,0.00,,---,0.00,VWS V14.01,2013-07-28 00:32:00,
2013-07-27 20:37:00,71.8,40.4,30.00,South,183,0.0,0.0,32,0.00,,---,0.00,VWS V14.01,2013-07-28 00:37:00,
2013-07-27 20:42:00,71.4,40.0,30.00,South,183,0.0,0.0,32,0.00,,---,0.00,VWS V14.01,2013-07-28 00:42:00,
2013-07-27 20:47:00,71.4,40.0,30.00,South,183,0.0,0.0,32,0.00,,---,0.00,VWS V14.01,2013-07-28 00:47:00,
2013-07-27 20:52:00,71.2,39.9,30.00,SE,145,0.0,0.0,32,0.00,,---,0.00,VWS V14.01,2013-07-28 00:52:00,
2013-07-27 20:57:00,71.1,39.7,30.00,SE,128,0.0,0.0,32,0.00,,---,0.00,VWS V14.01,2013-07-28 00:57:00,
2013-07-27 21:02:00,70.7,39.4,30.00,SE,128,0.0,0.0,32,0.00,,---,0.00,VWS V14.01,2013-07-28 01:02:00,
2013-07-27 21:07:00,70.7,39.4,30.00,SE,128,0.0,0.0,32,0.00,,---,0.00,VWS V14.01,2013-07-28 01:07:00,
2013-07-27 21:12:00,70.9,39.6,30.00,East,89,0.0,0.0,32,0.00,,---,0.00,VWS V14.01,2013-07-28 01:12:00,
2013-07-27 21:17:00,70.9,39.6,30.00,NNE,29,0.0,0.0,32,0.00,,---,0.00,VWS V14.01,2013-07-28 01:17:00,
2013-07-27 21:22:00,70.3,39.1,30.00,NNE,29,0.0,0.0,32,0.00,,---,0.00,VWS V14.01,2013-07-28 01:22:00,
2013-07-27 21:27:00,70.2,39.0,30.00,ENE,68,0.0,0.0,32,0.00,,---,0.00,VWS V14.01,2013-07-28 01:27:00,
2013-07-27 21:32:00,70.0,38.8,30.00,ENE,68,0.0,0.0,32,0.00,,---,0.00,VWS V14.01,2013-07-28 01:32:00,
2013-07-27 21:37:00,69.6,39.3,30.00,ENE,68,0.0,0.0,33,0.00,,---,0.00,VWS V14.01,2013-07-28 01:37:00,
2013-07-27 21:42:00,69.3,39.0,30.00,ENE,68,0.0,0.0,33,0.00,,---,0.00,VWS V14.01,2013-07-28 01:42:00,
2013-07-27 21:47:00,69.1,38.8,30.00,ENE,68,0.0,0.0,33,0.00,,---,0.00,VWS V14.01,2013-07-28 01:47:00,
2013-07-27 21:52:00,68.9,38.6,30.00,ENE,68,0.0,0.0,33,0.00,,---,0.00,VWS V14.01,2013-07-28 01:52:00,
2013-07-27 21:57:00,69.1,38.8,30.00,ENE,68,0.0,0.0,33,0.00,,---,0.00,VWS V14.01,2013-07-28 01:57:00,
2013-07-27 22:02:00,69.3,39.0,30.00,ENE,68,0.0,0.0,33,0.00,,---,0.00,VWS V14.01,2013-07-28 02:02:00,
2013-07-27 22:07:00,69.3,39.0,30.00,ENE,68,0.0,0.0,33,0.00,,---,0.00,VWS V14.01,2013-07-28 02:07:00,
2013-07-27 22:12:00,69.1,38.8,30.00,ENE,68,0.0,0.0,33,0.00,,---,0.00,VWS V14.01,2013-07-28 02:12:00,
2013-07-27 22:17:00,68.9,38.6,29.97,ENE,68,0.0,0.0,33,0.00,,---,0.00,VWS V14.01,2013-07-28 02:17:00,
2013-07-27 22:22:00,68.7,38.5,29.97,ENE,68,0.0,0.0,33,0.00,,---,0.00,VWS V14.01,2013-07-28 02:22:00,
2013-07-27 22:27:00,68.9,38.6,29.97,ENE,59,0.0,0.0,33,0.00,,---,0.00,VWS V14.01,2013-07-28 02:27:00,
2013-07-27 22:32:00,68.9,38.6,29.97,ENE,59,0.0,0.0,33,0.00,,---,0.00,VWS V14.01,2013-07-28 02:32:00,
2013-07-27 22:37:00,68.7,38.5,29.97,ENE,59,0.0,0.0,33,0.00,,---,0.00,VWS V14.01,2013-07-28 02:37:00,
2013-07-27 22:42:00,68.7,38.5,29.97,ENE,59,0.0,0.0,33,0.00,,---,0.00,VWS V14.01,2013-07-28 02:42:00,
2013-07-27 22:47:00,68.5,38.3,29.97,ENE,59,0.0,0.0,33,0.00,,---,0.00,VWS V14.01,2013-07-28 02:47:00,
2013-07-27 22:52:00,68.5,38.3,29.97,ENE,59,0.0,0.0,33,0.00,,---,0.00,VWS V14.01,2013-07-28 02:52:00,
2013-07-27 22:57:00,68.4,38.2,29.97,ENE,59,0.0,0.0,33,0.00,,---,0.00,VWS V14.01,2013-07-28 02:57:00,
2013-07-27 23:02:00,68.0,37.8,29.97,ENE,59,0.0,0.0,33,0.00,,---,0.00,VWS V14.01,2013-07-28 03:02:00,
2013-07-27 23:07:00,67.8,37.7,29.97,ENE,59,0.0,0.0,33,0.00,,---,0.00,VWS V14.01,2013-07-28 03:07:00,
2013-07-27 23:12:00,67.6,37.5,29.97,ENE,59,0.0,0.0,33,0.00,,---,0.00,VWS V14.01,2013-07-28 03:12:00,
2013-07-27 23:17:00,67.5,37.4,29.97,ENE,59,0.0,0.0,33,0.00,,---,0.00,VWS V14.01,2013-07-28 03:17:00,
2013-07-27 23:22:00,67.3,37.2,29.97,ENE,59,0.0,0.0,33,0.00,,---,0.00,VWS V14.01,2013-07-28 03:22:00,
2013-07-27 23:27:00,67.1,37.1,29.97,ENE,59,0.0,0.0,33,0.00,,---,0.00,VWS V14.01,2013-07-28 03:27:00,
2013-07-27 23:32:00,66.7,37.5,29.97,ENE,59,0.0,0.0,34,0.00,,---,0.00,VWS V14.01,2013-07-28 03:32:00,
2013-07-27 23:37:00,66.6,37.3,29.97,ENE,59,0.0,0.0,34,0.00,,---,0.00,VWS V14.01,2013-07-28 03:37:00,
2013-07-27 23:42:00,66.4,37.2,29.97,ENE,59,0.0,0.0,34,0.00,,---,0.00,VWS V14.01,2013-07-28 03:42:00,
2013-07-27 23:47:00,66.2,37.0,29.97,ENE,59,0.0,0.0,34,0.00,,---,0.00,VWS V14.01,2013-07-28 03:47:00,
2013-07-27 23:52:00,66.2,37.0,29.97,ENE,59,0.0,0.0,34,0.00,,---,0.00,VWS V14.01,2013-07-28 03:52:00,
2013-07-27 23:57:00,66.2,37.0,29.97,ENE,59,0.0,0.0,34,0.00,,---,0.00,VWS V14.01,2013-07-28 03:57:00,